Temp_Advection
nan nan nan nan nan nan nan nan nan nan nan nan nan nan nan nan nan nan nan nan nan nan nan nan nan nan nan nan nan nan nan nan nan nan nan nan nan nan nan nan nan nan nan
nan -0 -0 0 0 -0 -0 -0 -1 -2 -0 -0 -1 -1 -1 -2 -1 0 1 -1 2 -0 -0 -1 -1 0 0 -0 -0 -1 -1 -0 1 -0 -0 0 1 1 1 1 0 0 nan
nan -0 -0 -0 -0 0 -0 -0 -0 -2 -2 0 -0 -1 -1 -2 -1 -1 0 0 1 0 0 0 1 0 -0 -1 0 -0 -2 -1 0 0 -0 -1 -0 0 1 1 0 0 nan
nan -0 -0 -0 -0 0 -0 -0 -0 -1 -3 -1 -1 -1 -1 -2 -2 -1 0 -0 -0 2 -0 1 1 0 0 0 -1 0 0 -2 -4 -0 -0 -1 -1 -0 0 1 0 0 nan
nan -0 -0 -0 -0 0 0 -0 -0 -0 -2 -2 -1 -2 -0 0 -1 -3 0 -0 -1 1 -0 1 1 1 0 0 -0 -0 -0 -1 -2 -2 -2 -1 -1 -1 -1 -0 1 0 nan
nan 0 -0 -0 -0 0 0 -0 -0 -0 -1 -1 -1 -1 -1 -0 -3 -2 0 -1 -0 1 0 1 1 1 0 0 0 0 -1 0 1 -1 -1 -1 -2 -2 -2 -1 -0 0 nan
nan -0 -0 -0 -0 -0 -0 -0 -0 -0 -0 -0 -1 -2 -2 -0 -1 -2 -1 -1 1 1 1 -0 0 0 0 -0 0 0 -0 -0 -0 -1 -1 -0 -0 -1 -2 -2 -4 -0 nan
nan -0 -1 -0 -0 -0 -0 -0 -0 -0 -0 -1 -1 -2 -2 -1 -2 -2 -0 -0 0 0 1 -1 -0 -0 0 -1 0 -0 1 0 -0 0 0 -0 0 -0 -1 -1 -3 -3 nan
nan -1 -1 -1 -1 -0 -0 -0 -0 -0 -0 -1 -1 -2 -2 -0 -1 -1 -2 0 -0 -0 2 -1 -0 -0 -1 -0 0 1 0 -0 -0 1 0 1 0 0 0 0 -0 -1 nan
nan -1 -1 -1 -0 -0 -1 -0 -0 -0 -0 -1 -1 -2 -1 -0 0 -1 -2 0 -0 -0 2 -0 0 0 -0 0 0 -0 -1 0 1 1 1 1 0 -0 -0 0 0 1 nan
nan -1 -1 -1 -1 -0 -0 -0 -0 -1 -0 -1 -1 -2 -2 -0 0 -1 -2 0 -0 0 0 3 -0 0 0 1 -1 -1 0 1 1 1 1 0 -0 0 -0 -0 -0 0 nan
nan -0 -1 -1 -1 -1 -0 -0 -1 -1 -1 -1 -1 -1 -2 -0 -1 -3 -2 0 -0 0 -0 2 -1 -1 0 1 -0 -0 0 0 0 0 0 -0 0 0 0 -0 0 0 nan
nan -0 -0 -1 -1 -1 -1 -0 -1 -1 -1 -1 -1 -1 -2 -0 -1 -4 -0 -1 0 0 -0 -0 -0 -1 0 -0 -1 -0 1 0 0 0 -0 -1 -0 -0 0 0 0 0 nan
nan -0 -0 -0 -1 -1 -1 -0 -1 -1 -1 -1 -1 -1 -1 -1 -2 -1 -1 -1 1 -0 -0 -1 1 -0 -0 -1 0 1 1 0 1 0 0 -0 -1 -0 -0 0 0 0 nan
nan 0 -0 -0 -0 -1 -1 -1 -1 -1 -1 -1 -1 -1 -1 -2 -1 -1 -3 1 -0 -0 -1 -0 2 -0 0 -0 -0 -0 -0 1 0 0 0 -0 -0 -0 0 0 0 0 nan
nan -0 -0 -0 -0 -1 -1 -1 -1 -2 -1 -1 -1 -1 -3 -1 -0 -2 -1 1 0 -1 -0 -0 -1 0 -0 -0 -0 0 0 0 -0 0 -0 -0 0 0 1 1 0 0 nan
nan -0 -0 -0 -0 0 -0 -2 -2 -2 -1 -2 -1 -1 -2 -0 -2 -5 -0 0 -0 -1 0 -1 -2 -0 -0 0 1 0 0 0 0 -0 -0 -0 0 0 1 0 0 0 nan
nan -0 -0 -1 -0 0 0 -1 -1 -1 -2 -1 -1 -2 -1 -2 -5 -5 0 -0 -0 -0 -0 -1 -1 -0 1 1 0 0 1 1 0 0 0 0 0 -0 0 -0 -0 0 nan
nan -0 -0 -1 0 1 -0 -0 -1 -1 -1 -1 -3 -2 -1 -3 -6 -1 -1 -1 -1 -0 -1 -2 -0 0 -0 1 1 1 1 1 0 1 1 1 0 0 0 -0 -0 0 nan
nan 0 -0 -0 1 2 -0 -1 -1 -1 -2 -3 -3 -1 -2 -4 -1 -0 -1 -1 -1 -1 -2 -0 1 -1 -0 1 1 2 1 0 0 1 1 1 0 1 0 -0 -0 -0 nan
nan 2 0 0 2 2 0 -0 -1 -1 -1 -1 -1 -1 -2 -3 1 -0 -0 -0 -0 -1 -0 1 1 0 1 1 2 1 0 -1 0 0 0 0 0 1 1 1 0 0 nan
nan 0 0 1 4 3 1 0 1 0 -1 -1 -2 -3 -1 0 1 1 -1 0 0 0 0 0 1 1 1 1 1 -0 -0 0 1 1 0 0 1 1 2 1 1 1 nan
nan -2 0 2 2 2 1 -0 -1 -1 -2 -3 -1 -2 -0 0 0 1 1 1 1 1 1 0 1 1 1 1 0 1 2 2 2 1 1 2 3 3 2 1 1 1 nan
nan 1 2 3 3 3 3 3 -0 -3 -1 -1 -0 -0 0 0 0 0 1 1 0 -1 -1 0 0 -0 0 0 0 1 1 0 0 1 2 3 4 3 2 1 1 1 nan
nan 3 3 2 3 2 3 3 3 1 0 0 0 1 0 0 0 0 1 1 0 0 -0 -0 0 0 0 -0 -0 -0 -0 -0 1 2 1 2 3 1 1 0 1 1 nan
nan nan nan nan nan nan nan nan nan nan nan nan nan nan nan nan nan nan nan nan nan nan nan nan nan nan nan nan nan nan nan nan nan nan nan nan nan nan nan nan nan nan nan
Wind_Speed
19 25 28 28 27 24 23 21 21 19 16 20 18 19 22 30 26 25 20 28 64 64 64 60 58 54 50 48 44 42 41 40 39 43 36 32 29 27 26 25 21 21 19
27 35 36 30 25 24 23 21 20 20 15 18 15 19 23 23 24 19 19 15 61 67 67 61 58 57 53 50 46 43 44 41 42 47 43 30 27 26 24 24 23 22 19
34 42 37 30 26 24 24 24 22 22 20 18 19 17 20 23 32 26 32 15 32 75 67 63 62 60 57 53 48 44 41 46 43 44 27 25 17 32 26 25 24 23 22
40 36 32 31 29 27 25 25 24 22 23 19 21 18 18 20 35 38 33 16 21 65 67 64 63 62 59 54 50 45 39 45 48 44 26 21 32 30 26 29 27 23 23
39 39 33 30 31 29 26 26 25 24 23 22 20 21 18 20 30 35 27 16 26 56 72 68 65 62 60 55 50 47 44 41 41 49 41 27 30 21 25 30 32 27 25
41 37 33 32 31 29 28 26 26 25 22 22 22 24 24 21 30 38 29 15 34 51 72 69 66 63 61 58 52 46 42 42 40 44 41 33 32 35 26 23 29 24 27
44 43 40 36 34 32 30 28 26 25 23 23 22 24 23 23 29 40 36 18 28 52 71 70 68 64 62 59 53 50 42 40 38 39 42 35 20 32 25 25 28 21 26
47 45 41 41 37 34 32 30 28 28 25 24 25 26 30 30 28 47 40 25 12 38 73 69 67 62 62 58 55 50 45 40 37 32 39 37 24 22 24 25 32 22 22
48 48 45 40 39 38 33 30 31 31 27 25 25 26 30 29 28 46 45 32 16 26 68 71 64 61 61 59 56 52 48 42 36 35 32 36 28 17 25 19 23 26 22
51 50 48 44 41 36 34 31 29 31 27 26 26 28 33 33 34 43 52 39 14 22 56 70 65 61 62 61 58 55 49 45 38 36 34 37 33 19 20 21 19 27 18
54 52 51 48 41 38 32 29 27 28 28 27 27 29 34 35 36 38 53 39 20 28 49 68 66 63 64 64 60 55 51 47 38 36 35 38 34 26 20 22 21 24 21
54 52 51 47 46 37 31 29 27 27 26 26 26 32 35 39 37 42 49 40 30 32 45 59 70 64 64 67 60 57 52 49 41 38 37 40 36 27 23 19 22 23 23
53 50 44 48 46 40 33 28 25 26 25 25 26 30 37 43 42 46 47 48 35 36 53 55 72 65 64 66 61 56 54 50 44 37 38 41 42 32 25 21 21 22 22
51 47 49 47 45 42 33 28 24 24 25 26 28 31 36 47 43 46 44 49 31 42 58 58 70 65 61 62 60 60 56 50 45 36 36 39 41 39 28 20 19 20 21
49 53 51 48 46 40 31 25 22 23 25 29 32 36 37 49 44 40 42 43 33 49 61 59 65 64 60 63 62 60 57 51 46 37 36 36 36 35 35 27 19 18 21
59 56 54 50 45 35 27 23 22 23 27 33 34 35 38 50 48 40 47 34 36 52 56 64 64 63 61 64 63 58 59 51 47 40 38 35 34 33 32 27 22 16 18
58 58 56 51 44 37 23 21 21 23 26 33 33 33 43 43 45 42 49 41 44 60 60 61 66 64 62 63 62 57 57 51 49 44 39 34 34 34 33 29 25 19 18
60 58 56 54 47 29 14 13 20 25 27 33 34 35 47 36 41 44 33 32 51 58 60 63 64 64 62 62 59 55 54 51 49 45 41 34 34 36 35 32 29 24 22
56 53 52 49 40 27 7 10 16 20 27 33 36 46 36 41 48 38 40 52 57 62 65 61 60 63 62 58 60 56 55 52 52 47 42 38 35 35 36 34 31 28 29
56 55 52 44 39 20 1 11 17 22 28 33 45 36 34 43 43 39 40 46 47 56 56 58 54 57 56 57 56 56 57 53 52 49 44 40 35 34 36 36 34 31 32
64 55 49 47 46 23 8 13 21 27 33 42 30 31 39 44 40 41 49 44 46 42 38 49 46 43 46 53 55 54 54 53 52 49 46 43 39 37 37 36 35 31 31
70 73 67 57 52 29 15 13 24 34 40 30 36 40 46 46 47 46 42 40 40 40 43 45 45 43 47 42 44 47 48 51 50 50 47 44 42 40 39 37 35 31 29
60 64 58 50 52 42 26 11 23 33 22 38 39 47 45 42 45 46 41 39 41 40 30 25 37 39 40 39 41 43 44 43 45 46 44 44 45 43 41 38 34 32 30
62 64 65 69 60 48 38 20 27 35 36 38 39 40 40 42 40 38 39 40 40 37 34 31 33 36 33 34 36 39 42 42 43 38 41 44 45 42 39 36 33 32 29
66 64 65 65 61 51 43 27 32 31 31 34 34 34 34 34 33 31 32 32 26 21 20 21 22 26 31 30 31 38 40 39 38 34 39 43 44 45 42 39 37 35 32
59 61 62 61 57 51 39 26 24 31 28 30 29 31 32 31 32 32 34 30 24 21 16 12 13 19 19 22 24 27 29 30 33 33 39 45 46 44 44 43 39 36 35
Wind_Direction
335 334 330 326 320 317 313 311 309 303 301 297 290 275 289 260 219 216 262 194 198 192 187 191 187 187 186 180 179 176 174 169 168 159 155 153 159 163 162 164 164 161 158
334 332 327 322 318 315 312 308 303 296 288 284 291 279 268 253 237 220 233 308 196 195 194 192 190 188 184 181 182 182 173 171 173 163 157 144 154 167 170 169 170 167 165
334 327 325 321 318 315 310 304 299 293 283 267 270 261 270 256 243 230 212 305 198 193 197 192 192 190 188 185 184 185 184 172 171 176 164 147 169 167 175 176 177 176 170
332 328 323 318 316 312 307 300 296 289 282 267 270 268 259 258 247 233 223 278 196 185 198 194 194 193 189 188 186 188 192 184 180 174 173 177 179 168 173 183 184 183 179
331 327 322 316 312 309 303 297 293 285 279 267 260 259 261 257 245 234 227 279 220 184 199 193 195 195 191 190 189 187 190 197 190 186 184 181 169 178 176 177 188 190 191
328 325 319 315 311 307 301 294 289 281 273 264 250 243 236 236 239 233 232 265 198 180 195 193 195 196 193 191 190 193 193 196 197 195 193 188 182 184 173 177 183 184 193
326 324 322 318 313 307 301 294 286 276 269 262 249 239 234 238 227 232 234 224 185 185 189 193 194 195 195 192 192 193 196 197 199 203 199 196 197 194 188 179 172 176 191
325 322 321 317 315 308 300 292 281 274 267 259 246 233 224 224 224 222 233 223 192 192 188 193 194 196 197 194 195 195 197 197 200 206 205 200 201 205 195 200 188 172 184
321 321 321 316 312 306 296 289 278 270 262 253 244 232 222 220 222 218 224 230 233 193 185 194 192 195 199 197 197 196 197 196 200 206 205 204 200 197 201 204 208 202 180
320 319 317 315 311 305 297 287 274 266 256 247 238 228 218 214 213 209 217 221 211 190 183 195 193 195 198 198 199 200 198 199 201 204 203 202 200 197 192 198 200 204 199
315 314 313 313 310 306 296 286 274 262 251 239 231 223 217 210 208 205 207 206 207 185 189 194 194 196 197 200 199 203 202 200 200 202 202 202 200 202 195 195 197 201 205
310 311 311 313 312 308 298 287 274 258 246 233 224 219 213 203 206 211 196 204 209 208 197 188 193 197 197 201 199 201 202 202 201 200 200 200 197 198 198 195 197 197 202
311 310 310 311 310 307 298 286 272 256 240 227 217 213 209 198 206 203 196 205 211 201 195 188 194 197 198 201 200 201 203 202 204 202 199 199 199 197 192 192 196 199 201
311 310 313 311 309 305 297 283 268 248 232 219 213 207 205 195 203 194 197 205 213 197 191 193 195 198 199 200 199 203 203 202 205 203 202 201 201 200 195 193 200 203 204
315 318 316 313 309 304 296 279 261 242 219 211 208 205 204 193 195 195 195 211 202 201 194 197 192 197 200 196 200 205 203 202 203 201 202 204 205 206 209 211 208 209 207
319 320 318 315 311 304 292 273 253 231 211 206 205 201 202 192 194 195 180 187 195 206 202 200 194 197 200 198 202 206 205 202 203 200 200 200 201 204 208 213 216 225 221
319 321 320 318 315 310 292 263 236 213 209 201 200 198 192 194 199 194 189 208 197 198 201 208 203 199 201 200 203 207 206 203 204 205 199 197 198 200 204 207 210 212 210
323 324 324 324 325 332 313 247 215 199 201 195 194 191 187 197 195 188 200 193 192 199 200 209 205 199 201 202 203 205 207 206 205 208 205 200 197 199 203 204 203 204 198
326 326 327 329 340 344 308 215 198 194 185 188 186 181 185 192 181 186 185 188 187 189 196 202 208 207 201 204 204 205 209 209 209 210 209 205 203 203 202 202 203 201 193
334 334 339 347 357 9 242 187 180 176 182 186 178 182 191 185 177 181 193 200 198 198 199 205 212 205 203 204 206 208 210 211 212 212 210 207 206 208 205 203 204 203 196
336 345 355 0 11 27 105 161 166 173 172 170 191 186 174 174 175 180 191 189 195 194 206 204 207 214 211 211 208 210 211 211 212 212 210 206 206 208 206 207 206 207 203
351 359 0 7 21 42 75 142 161 168 177 205 180 174 164 164 174 174 182 188 190 194 202 203 205 211 213 212 210 209 212 213 214 212 211 209 204 205 205 203 203 201 202
351 356 360 5 20 37 49 183 205 199 206 159 159 158 160 168 179 178 176 182 193 191 189 201 210 212 213 212 210 211 212 216 218 217 218 211 204 202 200 200 198 197 196
355 359 4 12 21 32 43 79 144 172 154 147 151 159 168 174 177 177 178 180 186 187 190 186 203 207 214 212 210 212 217 219 218 218 215 209 201 195 192 192 195 194 195
2 9 9 15 19 24 38 63 107 141 141 143 151 158 165 169 171 171 177 179 177 176 190 190 201 205 208 210 206 209 213 217 219 217 210 200 196 187 186 194 192 191 191
7 10 16 20 27 26 33 53 85 116 134 142 155 158 159 164 166 168 174 183 165 148 152 165 199 200 210 210 206 208 213 216 215 207 203 192 190 186 188 191 189 192 195
Height
1497 1494 1489 1485 1479 1476 1471 1468 1465 1464 1461 1456 1457 1458 1446 1460 1457 1466 1471 1466 1477 1491 1495 1505 1513 1521 1528 1534 1541 1546 1551 1561 1566 1571 1582 1587 1593 1597 1599 1602 1606 1608 1610
1492 1488 1484 1479 1474 1469 1465 1462 1460 1458 1459 1458 1452 1451 1458 1456 1451 1457 1460 1474 1473 1482 1488 1499 1507 1515 1523 1531 1536 1543 1550 1558 1565 1568 1576 1586 1594 1598 1600 1603 1606 1608 1610
1489 1482 1476 1472 1468 1464 1459 1455 1453 1451 1451 1455 1456 1456 1449 1444 1453 1457 1457 1464 1464 1471 1481 1495 1501 1509 1517 1525 1533 1539 1545 1552 1564 1568 1571 1581 1586 1592 1600 1602 1605 1607 1610
1484 1479 1472 1466 1462 1458 1454 1449 1446 1443 1441 1443 1441 1442 1444 1436 1442 1451 1452 1457 1460 1464 1476 1490 1498 1505 1512 1521 1530 1536 1543 1549 1554 1565 1572 1571 1574 1582 1594 1599 1603 1605 1608
1478 1471 1465 1460 1455 1451 1447 1443 1439 1435 1433 1433 1433 1433 1431 1437 1442 1444 1447 1452 1453 1458 1470 1484 1493 1501 1508 1518 1526 1533 1541 1547 1552 1557 1562 1569 1576 1581 1585 1590 1597 1602 1606
1471 1466 1459 1452 1447 1443 1439 1435 1432 1427 1426 1425 1427 1430 1439 1438 1434 1436 1446 1450 1450 1456 1466 1479 1487 1498 1505 1513 1524 1531 1538 1544 1551 1556 1561 1565 1567 1572 1578 1584 1591 1599 1603
1463 1455 1448 1442 1437 1432 1429 1426 1423 1420 1419 1418 1420 1421 1419 1423 1426 1431 1443 1448 1446 1458 1458 1470 1481 1492 1502 1510 1521 1528 1536 1541 1546 1552 1558 1564 1570 1573 1577 1580 1587 1594 1599
1454 1447 1440 1432 1427 1421 1418 1415 1412 1410 1410 1409 1410 1416 1422 1424 1421 1424 1433 1437 1444 1455 1452 1463 1476 1487 1498 1508 1517 1525 1533 1539 1544 1550 1556 1562 1568 1571 1575 1578 1581 1590 1595
1446 1436 1430 1424 1417 1412 1407 1404 1400 1399 1399 1398 1399 1403 1404 1407 1413 1421 1430 1437 1442 1441 1446 1456 1467 1481 1494 1504 1514 1521 1529 1535 1541 1548 1554 1560 1566 1570 1574 1578 1581 1585 1589
1436 1427 1420 1412 1407 1401 1396 1392 1388 1386 1389 1388 1391 1395 1400 1405 1411 1416 1426 1433 1434 1440 1444 1449 1463 1475 1488 1499 1508 1517 1525 1531 1537 1543 1550 1556 1563 1568 1571 1575 1579 1583 1587
1426 1416 1408 1400 1394 1389 1384 1379 1376 1375 1376 1378 1381 1384 1389 1396 1405 1407 1421 1430 1427 1433 1443 1447 1458 1471 1482 1492 1502 1512 1520 1527 1533 1539 1546 1553 1560 1565 1569 1572 1576 1581 1585
1419 1408 1397 1387 1380 1375 1371 1367 1365 1363 1364 1368 1373 1376 1382 1387 1393 1403 1414 1422 1427 1431 1438 1444 1453 1467 1476 1486 1495 1504 1514 1522 1528 1535 1542 1548 1555 1561 1565 1570 1574 1578 1582
1409 1399 1389 1379 1369 1362 1358 1355 1353 1351 1354 1358 1364 1367 1373 1377 1386 1393 1405 1418 1425 1429 1438 1444 1449 1459 1471 1482 1490 1499 1509 1518 1526 1532 1537 1543 1550 1556 1561 1566 1571 1575 1579
1400 1388 1379 1369 1359 1350 1346 1343 1342 1343 1345 1349 1354 1359 1364 1371 1377 1387 1398 1408 1416 1424 1432 1440 1444 1456 1467 1478 1484 1494 1505 1515 1523 1528 1534 1539 1545 1552 1558 1564 1568 1572 1576
1389 1378 1366 1355 1346 1338 1333 1330 1330 1332 1337 1342 1347 1352 1359 1369 1377 1384 1391 1402 1412 1418 1427 1432 1440 1452 1462 1470 1478 1489 1501 1510 1518 1524 1531 1536 1543 1549 1556 1561 1566 1569 1573
1378 1365 1353 1342 1332 1325 1322 1319 1319 1321 1327 1334 1339 1347 1354 1362 1369 1375 1388 1401 1408 1411 1418 1429 1435 1445 1455 1465 1475 1486 1495 1505 1513 1519 1526 1532 1539 1545 1552 1559 1564 1568 1571
1370 1355 1340 1328 1318 1311 1308 1305 1307 1312 1318 1326 1332 1338 1344 1356 1363 1374 1382 1394 1401 1407 1415 1423 1433 1441 1453 1461 1473 1483 1492 1499 1507 1515 1522 1528 1533 1540 1547 1554 1560 1564 1568
1363 1347 1331 1316 1304 1297 1296 1296 1299 1304 1310 1317 1324 1330 1340 1349 1359 1371 1381 1385 1395 1401 1408 1422 1429 1437 1450 1458 1469 1479 1488 1496 1503 1511 1519 1524 1528 1535 1542 1549 1555 1560 1565
1362 1345 1329 1313 1298 1292 1290 1291 1295 1300 1306 1311 1319 1330 1339 1349 1358 1369 1376 1386 1392 1400 1407 1416 1422 1432 1444 1453 1464 1473 1482 1490 1498 1506 1513 1519 1525 1530 1537 1544 1550 1555 1561
1357 1336 1321 1308 1298 1290 1288 1289 1293 1298 1302 1307 1318 1331 1337 1344 1353 1363 1372 1384 1391 1398 1406 1414 1421 1428 1437 1444 1458 1468 1476 1483 1491 1500 1508 1515 1521 1526 1533 1539 1544 1550 1556
1341 1333 1320 1307 1297 1290 1287 1289 1295 1299 1301 1314 1322 1328 1334 1340 1350 1365 1375 1382 1390 1397 1406 1413 1420 1427 1433 1437 1452 1462 1468 1475 1485 1492 1501 1508 1515 1523 1529 1534 1541 1547 1553
1337 1314 1308 1309 1302 1294 1293 1295 1295 1304 1310 1313 1321 1327 1333 1342 1357 1367 1376 1383 1391 1399 1405 1411 1418 1423 1431 1438 1443 1455 1463 1470 1478 1486 1495 1502 1510 1518 1524 1530 1537 1544 1551
1359 1335 1328 1320 1310 1304 1305 1306 1307 1305 1307 1315 1319 1327 1336 1348 1360 1366 1371 1380 1390 1397 1402 1408 1415 1422 1428 1434 1442 1448 1455 1465 1473 1480 1488 1496 1504 1512 1519 1525 1533 1539 1546
1364 1340 1327 1308 1307 1305 1306 1301 1300 1309 1310 1315 1322 1332 1342 1353 1363 1367 1373 1381 1387 1392 1400 1402 1411 1418 1424 1430 1438 1444 1450 1458 1466 1474 1481 1488 1497 1506 1514 1522 1529 1537 1542
1365 1356 1339 1331 1311 1307 1306 1299 1305 1310 1317 1325 1335 1340 1349 1354 1359 1367 1374 1385 1392 1394 1397 1402 1410 1414 1421 1426 1433 1440 1446 1453 1462 1470 1476 1481 1492 1500 1508 1518 1525 1532 1537
1386 1364 1354 1344 1338 1322 1314 1314 1315 1322 1331 1335 1342 1348 1354 1359 1364 1371 1383 1391 1391 1391 1399 1403 1408 1412 1419 1426 1430 1437 1444 1451 1457 1465 1471 1476 1486 1495 1504 1513 1521 1528 1533